Find Starlink 31967

NORAD ID: 60021 Int'l Des: 2024-111 Owner: SPXS Country: US Constellation: starlink operational
LEOCIRCULAR

現在のビュー

3D地球を読み込み中...

About Starlink 31967

Starlink 31967 (NORAD 60021) is a starlink constellation satellite (v2 mini) launched Jun 8, 2024 by SPXS of US. It operates in LEO, CIRCULAR orbit with a mass of 730.00 kg.

Starlink 31967について

説明を読み込み中...

次回通過

Passes for default location (London). Set your location on the main map for personalized predictions.

高度履歴

Loading altitude history...

軌道要素

1 60021U 24111F 26170.73118142 .00000195 00000-0 16907-4 0 9993
2 60021 53.1601 319.7318 0000943 89.9995 270.1116 15.34396688114696
Epoch: Jun 19, 2026 • Age: 30 hours

現在のステータス

高度 463.3 km
速度 7.64 km/s
衛星直下点 25.00°N, 154.11°W
打ち上げ日 Jun 8, 2024
運用期間 2 years
タイプ internet

技術仕様

分類 Payload
質量 730.00 kg
乾燥質量 700.00 kg
総質量 730.00 kg
長さ 0.30 m
直径 4.10 m
スパン 29.00 m
形状 Box + pan
製造者 SPXS
バスタイプ Starlink V2M
フェーズステータス In Orbit
所有者/国 SPXS/US

Most Searched